This is the latest recevied weather packets stored in our database for station/object KB3HLL. If no packets are shown the sender has not sent any weather packets the latest 10 day(s).
| Time | Temp. | Humidity | Pressure | Rain* | Wind** | Luminosity | Snow |
|---|---|---|---|---|---|---|---|
| 1777828878 | 9.44° C | 51% | 1013.9 hPa | 0 mm | - | 1035 W/m² | - |
| 1777828578 | 8.89° C | 53% | 1013.8 hPa | 0 mm | - | 1076 W/m² | - |
| 1777828277 | 8.89° C | 52% | 1014 hPa | 0 mm | - | 1113 W/m² | - |
| 1777827977 | 8.89° C | 53% | 1014 hPa | 0 mm | - | 847 W/m² | - |
| 1777827678 | 9.44° C | 53% | 1014.2 hPa | 0 mm | - | 301 W/m² | - |
| 1777827377 | 10° C | 52% | 1014 hPa | 0 mm | - | 485 W/m² | - |
| 1777827078 | 9.44° C | 52% | 1014.2 hPa | 0 mm | - | 1075 W/m² | - |
| 1777826778 | 9.44° C | 53% | 1014.2 hPa | 0 mm | - | 1064 W/m² | - |
| 1777826478 | 9.44° C | 52% | 1014.3 hPa | 0 mm | - | 1039 W/m² | - |
| 1777826177 | 8.33° C | 53% | 1014.2 hPa | 0 mm | - | 612 W/m² | - |
| 1777825878 | 8.33° C | 54% | 1014.2 hPa | 0 mm | - | 1069 W/m² | - |
| 1777825578 | 8.33° C | 52% | 1014.1 hPa | 0 mm | - | 773 W/m² | - |
| 1777825278 | 8.33° C | 52% | 1014.2 hPa | 0 mm | - | 1045 W/m² | - |
| 1777824977 | 7.78° C | 58% | 1014.4 hPa | 0 mm | - | 1045 W/m² | - |
| 1777824679 | 7.78° C | 56% | 1014.3 hPa | 0 mm | - | 263 W/m² | - |
| 1777824377 | 7.78° C | 55% | 1014.5 hPa | 0 mm | - | 433 W/m² | - |
| 1777824077 | 7.78° C | 56% | 1014.5 hPa | 0 mm | - | 1064 W/m² | - |
| 1777823779 | 7.22° C | 55% | 1014.5 hPa | 0 mm | - | 446 W/m² | - |
| 1777823477 | 7.22° C | 58% | 1014.5 hPa | 0 mm | - | 628 W/m² | - |
| 1777823178 | 7.22° C | 58% | 1014.6 hPa | 0 mm | - | 309 W/m² | - |
| 1777822877 | 6.67° C | 57% | 1014.5 hPa | 0 mm | - | 831 W/m² | - |
| 1777822578 | 6.67° C | 57% | 1014.6 hPa | 0 mm | - | 290 W/m² | - |
| 1777822278 | 6.67° C | 59% | 1014.5 hPa | 0 mm | - | 1062 W/m² | - |
| 1777821978 | 6.67° C | 59% | 1014.6 hPa | 0 mm | - | 832 W/m² | - |
| 1777821679 | 6.11° C | 61% | 1014.6 hPa | 0 mm | - | 479 W/m² | - |
* Rain latest hour (hover to see other rain measurements)
** Current wind speed in m/s (hover to see current wind gust speed)